When you browse on this site, cookies collect data to enhance your experience and personalize the content and advertising you see.
Visit our Privacy Policy to learn more. By continuing to use the site, you agree to this use of cookies and data.
  • In United Kingdom
  • List of Countries
  • For 7 days
  • Water Temperature
  • Weather Map
  • Weather Widgets
  • user-avatar
    Login

    Hourly Weather Grabnowola

    Today, 23 October, Wednesday

    Time Temperature Precipitation Wind Pressure Humidity
    00:00 +15°C° 0 mm 1 mps 755 mmHg 85%
    01:00 +14°C° 0 mm 2 mps 755 mmHg 85%
    02:00 +14°C° 0 mm 1 mps 755 mmHg 86%
    03:00 +13°C° 0 mm 1 mps 755 mmHg 87%
    04:00 +13°C° 0 mm 1 mps 755 mmHg 88%
    05:00 +13°C° 0 mm 1 mps 755 mmHg 87%
    06:00 +12°C° 0 mm 0 mps 755 mmHg 87%
    07:00 +12°C° 0 mm 0 mps 755 mmHg 83%
    08:00 +13°C° 0 mm 0 mps 755 mmHg 78%
    09:00 +16°C° 0 mm 1 mps 755 mmHg 72%
    10:00 +18°C° 0 mm 1 mps 755 mmHg 67%
    11:00 +19°C° 0 mm 1 mps 755 mmHg 64%
    12:00 +20°C° 0 mm 1 mps 754 mmHg 61%
    13:00 +21°C° 0 mm 1 mps 754 mmHg 58%
    14:00 +20°C° 0 mm 1 mps 754 mmHg 62%
    15:00 +19°C° 0 mm 1 mps 753 mmHg 65%
    16:00 +17°C° 0 mm 2 mps 753 mmHg 69%
    17:00 +17°C° 0 mm 2 mps 753 mmHg 73%
    18:00 +16°C° 0 mm 2 mps 753 mmHg 77%
    19:00 +14°C° 0 mm 3 mps 753 mmHg 81%
    20:00 +14°C° 0 mm 2 mps 752 mmHg 83%
    21:00 +14°C° 0 mm 2 mps 752 mmHg 86%
    22:00 +14°C° 0 mm 2 mps 752 mmHg 88%
    23:00 +14°C° 0 mm 2 mps 752 mmHg 90%

    Tomorrow, 24 October, Thursday

    Time Temperature Precipitation Wind Pressure Humidity
    00:00 +12°C° 0 mm 3 mps 752 mmHg 91%
    01:00 +12°C° 0 mm 3 mps 752 mmHg 92%
    02:00 +12°C° 0 mm 3 mps 751 mmHg 92%
    03:00 +12°C° 0 mm 3 mps 751 mmHg 92%
    04:00 +12°C° 0 mm 3 mps 750 mmHg 92%
    05:00 +12°C° 0 mm 3 mps 750 mmHg 92%
    06:00 +11°C° 0 mm 3 mps 750 mmHg 91%
    07:00 +11°C° 0 mm 3 mps 749 mmHg 91%
    08:00 +13°C° 0 mm 4 mps 749 mmHg 82%
    09:00 +15°C° 0 mm 4 mps 749 mmHg 73%
    10:00 +18°C° 0 mm 4 mps 749 mmHg 64%
    11:00 +19°C° 0 mm 4 mps 749 mmHg 60%
    12:00 +21°C° 0 mm 4 mps 748 mmHg 56%
    13:00 +22°C° 0 mm 4 mps 748 mmHg 51%
    14:00 +21°C° 0 mm 4 mps 748 mmHg 54%
    15:00 +20°C° 0 mm 4 mps 747 mmHg 57%
    16:00 +19°C° 0 mm 3 mps 747 mmHg 60%
    17:00 +18°C° 0 mm 3 mps 747 mmHg 61%
    18:00 +17°C° 0 mm 3 mps 747 mmHg 63%
    19:00 +16°C° 0 mm 3 mps 747 mmHg 64%
    20:00 +16°C° 0 mm 3 mps 747 mmHg 66%
    21:00 +14°C° 0 mm 3 mps 747 mmHg 68%
    22:00 +15°C° 0 mm 2 mps 748 mmHg 70%
    23:00 +14°C° 0 mm 2 mps 748 mmHg 70%

    Day after tomorrow, 25 October, Friday

    Time Temperature Precipitation Wind Pressure Humidity
    00:00 +14°C° 0 mm 2 mps 748 mmHg 70%
    01:00 +14°C° 0 mm 2 mps 748 mmHg 69%
    02:00 +14°C° 0 mm 2 mps 748 mmHg 69%
    03:00 +14°C° 0 mm 2 mps 749 mmHg 68%
    04:00 +13°C° 0 mm 3 mps 749 mmHg 67%
    05:00 +12°C° 0 mm 3 mps 749 mmHg 70%
    06:00 +12°C° 0 mm 3 mps 750 mmHg 74%
    07:00 +12°C° 0 mm 3 mps 750 mmHg 77%
    08:00 +13°C° 0 mm 4 mps 751 mmHg 75%
    09:00 +15°C° 0 mm 4 mps 751 mmHg 73%
    10:00 +18°C° 0 mm 4 mps 751 mmHg 71%
    11:00 +18°C° 0 mm 4 mps 752 mmHg 67%
    12:00 +19°C° 0 mm 4 mps 752 mmHg 63%
    13:00 +20°C° 0 mm 4 mps 752 mmHg 59%
    14:00 +19°C° 0 mm 4 mps 753 mmHg 63%
    15:00 +18°C° 0 mm 3 mps 753 mmHg 66%
    16:00 +17°C° 0 mm 3 mps 753 mmHg 70%
    17:00 +16°C° 0 mm 3 mps 753 mmHg 73%
    18:00 +15°C° 0 mm 2 mps 754 mmHg 76%
    19:00 +14°C° 0 mm 2 mps 754 mmHg 80%
    20:00 +14°C° 0 mm 2 mps 754 mmHg 81%
    21:00 +13°C° 0 mm 2 mps 755 mmHg 83%
    22:00 +13°C° 0 mm 1 mps 755 mmHg 85%
    23:00 +13°C° 0 mm 1 mps 755 mmHg 86%

    26 October, Saturday

    Time Temperature Precipitation Wind Pressure Humidity
    00:00 +12°C° 0 mm 1 mps 755 mmHg 87%
    01:00 +11°C° 0 mm 0 mps 755 mmHg 87%
    02:00 +12°C° 0 mm 1 mps 754 mmHg 88%
    03:00 +12°C° 0 mm 1 mps 754 mmHg 88%
    04:00 +10°C° 0 mm 2 mps 754 mmHg 89%
    05:00 +10°C° 0 mm 2 mps 754 mmHg 89%
    06:00 +10°C° 0 mm 2 mps 754 mmHg 89%
    07:00 +10°C° 0 mm 3 mps 753 mmHg 90%
    08:00 +12°C° 0 mm 3 mps 753 mmHg 82%
    09:00 +14°C° 0 mm 4 mps 753 mmHg 75%
    10:00 +17°C° 0 mm 4 mps 753 mmHg 68%
    11:00 +18°C° 0 mm 4 mps 752 mmHg 64%
    12:00 +19°C° 0 mm 4 mps 751 mmHg 60%
    13:00 +20°C° 0 mm 4 mps 751 mmHg 56%
    14:00 +19°C° 0 mm 4 mps 750 mmHg 59%
    15:00 +18°C° 0 mm 3 mps 750 mmHg 61%
    16:00 +18°C° 0 mm 3 mps 749 mmHg 63%
    17:00 +17°C° 0 mm 3 mps 749 mmHg 64%
    18:00 +16°C° 0 mm 3 mps 750 mmHg 65%
    19:00 +15°C° 0 mm 4 mps 750 mmHg 66%
    20:00 +14°C° 0 mm 4 mps 750 mmHg 69%
    21:00 +14°C° 0 mm 4 mps 750 mmHg 72%
    22:00 +13°C° 0 mm 4 mps 750 mmHg 75%
    23:00 +13°C° 0 mm 4 mps 750 mmHg 78%

    27 October, Sunday

    Time Temperature Precipitation Wind Pressure Humidity
    00:00 +13°C° 0 mm 4 mps 750 mmHg 80%
    01:00 +12°C° 0 mm 3 mps 750 mmHg 83%
    02:00 +12°C° 0 mm 3 mps 750 mmHg 84%
    03:00 +12°C° 0 mm 3 mps 750 mmHg 85%
    04:00 +12°C° 0 mm 3 mps 750 mmHg 86%
    05:00 +11°C° 0 mm 3 mps 750 mmHg 86%
    06:00 +11°C° 0 mm 3 mps 750 mmHg 87%
    07:00 +11°C° 0 mm 3 mps 749 mmHg 87%
    08:00 +13°C° 0 mm 4 mps 750 mmHg 77%
    09:00 +15°C° 0 mm 4 mps 750 mmHg 67%
    10:00 +17°C° 0 mm 5 mps 750 mmHg 57%
    11:00 +19°C° 0 mm 5 mps 749 mmHg 53%
    12:00 +20°C° 0 mm 5 mps 749 mmHg 49%
    13:00 +20°C° 0 mm 5 mps 749 mmHg 45%
    14:00 +19°C° 0 mm 4 mps 748 mmHg 49%
    15:00 +18°C° 0 mm 3 mps 748 mmHg 53%
    16:00 +17°C° 0 mm 2 mps 748 mmHg 57%
    17:00 +16°C° 0 mm 2 mps 748 mmHg 61%
    18:00 +15°C° 0 mm 2 mps 748 mmHg 64%
    19:00 +14°C° 0 mm 2 mps 748 mmHg 68%
    20:00 +13°C° 0 mm 3 mps 748 mmHg 68%
    21:00 +13°C° 0 mm 3 mps 748 mmHg 69%
    22:00 +13°C° 0 mm 4 mps 748 mmHg 70%
    23:00 +13°C° 0 mm 4 mps 748 mmHg 71%

    28 October, Monday

    Time Temperature Precipitation Wind Pressure Humidity
    00:00 +13°C° 0 mm 4 mps 748 mmHg 72%
    01:00 +13°C° 0 mm 5 mps 748 mmHg 74%
    02:00 +12°C° 0.2 mm 5 mps 748 mmHg 77%
    03:00 +10°C° 0.2 mm 5 mps 748 mmHg 81%
    04:00 +8°C° 0.2 mm 5 mps 748 mmHg 84%
    05:00 +8°C° 0.3 mm 5 mps 749 mmHg 81%
    06:00 +8°C° 0.3 mm 5 mps 749 mmHg 78%
    07:00 +7°C° 0.3 mm 4 mps 749 mmHg 76%
    08:00 +8°C° 0 mm 5 mps 749 mmHg 70%
    09:00 +8°C° 0 mm 5 mps 750 mmHg 65%
    10:00 +9°C° 0 mm 5 mps 750 mmHg 59%
    11:00 +9°C° 0 mm 6 mps 750 mmHg 58%
    12:00 +9°C° 0 mm 6 mps 750 mmHg 57%
    13:00 +10°C° 0 mm 6 mps 750 mmHg 56%
    14:00 +9°C° 0 mm 5 mps 750 mmHg 57%
    15:00 +9°C° 0 mm 5 mps 750 mmHg 59%
    16:00 +8°C° 0 mm 5 mps 750 mmHg 61%
    17:00 +8°C° 0 mm 5 mps 750 mmHg 60%
    18:00 +7°C° 0 mm 5 mps 750 mmHg 59%
    19:00 +7°C° 0 mm 5 mps 750 mmHg 58%
    20:00 +6°C° 0 mm 5 mps 751 mmHg 60%
    21:00 +6°C° 0 mm 4 mps 751 mmHg 62%
    22:00 +5°C° 0 mm 4 mps 751 mmHg 64%
    23:00 +5°C° 0 mm 4 mps 751 mmHg 66%

    29 October, Tuesday

    Time Temperature Precipitation Wind Pressure Humidity
    00:00 +4°C° 0 mm 4 mps 751 mmHg 68%
    01:00 +4°C° 0 mm 4 mps 751 mmHg 70%
    02:00 +4°C° 0 mm 4 mps 751 mmHg 74%
    03:00 +3°C° 0 mm 3 mps 751 mmHg 79%
    04:00 +3°C° 0 mm 3 mps 752 mmHg 83%
    05:00 +3°C° 0 mm 3 mps 752 mmHg 86%
    06:00 +3°C° 0 mm 2 mps 752 mmHg 88%
    07:00 +3°C° 0 mm 2 mps 753 mmHg 91%
    08:00 +4°C° 0.1 mm 2 mps 753 mmHg 85%
    09:00 +5°C° 0.1 mm 2 mps 753 mmHg 80%
    10:00 +6°C° 0.1 mm 2 mps 754 mmHg 75%
    11:00 +6°C° 0.2 mm 2 mps 754 mmHg 70%
    12:00 +7°C° 0.2 mm 2 mps 754 mmHg 65%
    13:00 +7°C° 0.2 mm 2 mps 754 mmHg 60%
    14:00 +6°C° 0.1 mm 2 mps 754 mmHg 61%
    15:00 +5°C° 0.1 mm 3 mps 755 mmHg 61%
    16:00 +5°C° 0.1 mm 3 mps 755 mmHg 62%
    17:00 +4°C° 0 mm 3 mps 755 mmHg 61%
    18:00 +4°C° 0 mm 3 mps 756 mmHg 61%
    19:00 +3°C° 0 mm 3 mps 757 mmHg 61%
    20:00 +2°C° 0 mm 3 mps 757 mmHg 61%
    21:00 +1°C° 0 mm 3 mps 758 mmHg 61%
    22:00 +1°C° 0 mm 3 mps 758 mmHg 62%
    23:00 +1°C° 0 mm 2 mps 759 mmHg 64%
    Show more